Location: Houhaj�rvi
(61.2833°N, 23.0000°E)
Time: 02:55:24
(UTC+00:00)

SPOT 1/Viking Rocket - Pass Details

Date: 27 February 2020
Orbit: 778 x 793 km, 98.5° (Epoch: 05 April)

Event Time Altitude Azimuth Distance (km) Brightness Sun altitude
Exits shadow 18:14:41 33° 90° (E) 1,307 4.2 -18.5°
Maximum altitude 18:16:02 39° 55° (NE) 1,171 4.1 -18.6°
Drops below altitude 10° 18:20:49 10° 349° (N) 2,356 6.4 -19.2°
Sets 18:23:16 0° 342° (NNW) 3,291 7.3 -19.4°
